Regional Weather Roundup
Issued by NWS Cleveland, OH

Home | Current Version | Previous Version | Text Only | Print | Product List | Glossary Off
Versions: 1 2 3 4 5 6 7 8 9 10 11 12 13 14 15 16 17 18 19 20 21 22 23 24 25 26 27 28 29 30 31 32 33 34 35 36 37 38 39 40 41 42 43 44 45 46 47 48 49 50

926
ASUS41 KCLE 260910
RWRCLE
OHIO REGIONAL WEATHER ROUNDUP
NATIONAL WEATHER SERVICE WILMINGTON, OH
500 AM EDT TUE SEP 26 2017

NOTE: "FAIR" INDICATES FEW OR NO CLOUDS BELOW 12,000 FEET WITH NO
SIGNIFICANT WEATHER AND/OR OBSTRUCTIONS TO VISIBILITY.

OHZ001>008-015>018-024>027-034-035-043-044-261000-
   NORTHWEST OHIO

CITY           SKY/WX    TMP DP  RH WIND       PRES   REMARKS
DEFIANCE       FAIR      63  60  90 CALM      29.99S
FINDLAY        FAIR      67  60  78 S3        30.00S
TOLEDO EXPRESS FAIR      66  65  96 CALM      29.98S
TOLEDO EXEC    FAIR      70  63  78 S5        29.99S
LIMA           FAIR      65  62  90 S6        30.01S
$$

OHZ009>014-019>023-028>033-038-089-261000-
   NORTHEAST OHIO

CITY           SKY/WX    TMP DP  RH WIND       PRES   REMARKS
CLE-HOPKINS    MOCLDY    71  63  75 S3        30.02S
CLE-LAKEFRONT  FAIR      72  61  68 S8        29.99S
CUY CO. ARPT   NOT AVBL
LORAIN-ELYRIA  FAIR      63  57  81 SW3       30.02R
ASHTABULA      FAIR      65  65 100 SE3       30.03F
AKRON-CANTON   FAIR      68  59  73 S3        30.04S
WOOSTER        FAIR      57  56  96 CALM      30.04S
MANSFIELD      FAIR      66  61  84 S5        30.03S
YOUNGSTOWN     MOCLDY    63  62  97 E6        30.04S
$$

OHZ042-051>053-060>062-070>072-077>081-261000-
  SOUTHWEST OHIO

CITY           SKY/WX    TMP DP  RH WIND       PRES   REMARKS
CINC-COVINGTON FAIR      66  65  96 CALM      30.01S
CINC-LUNKEN    FOG       62  62 100 CALM      30.02R VSB 3/4
HAMILTON       FAIR      60  60 100 CALM      30.02S
DAYTON         FAIR      65  62  90 CALM      30.03S
WRIGHT-PAT AFB FAIR      63  63  99 CALM      30.02R
DAYTON GENERAL FAIR      67  61  81 CALM      30.01S
WILMINGTON     FAIR      61  61 100 CALM      30.02S
$$

OHZ036-037-039>041-045>050-054>059-063>069-073>076-082>088-261000-
  CENTRAL AND SOUTHEAST OHIO

CITY           SKY/WX    TMP DP  RH WIND       PRES   REMARKS
COLUMBUS       FAIR      65  63  93 CALM      30.01S
OSU AIRPORT    FAIR      63  63 100 CALM      30.02S
BOLTON FIELD   FAIR      61  61  98 CALM      30.03R
RICKENBACK AFB FAIR      63  63  97 CALM      30.01S
NEWARK         FAIR      59  58  96 CALM      30.02S FOG
MARION         FAIR      64  61  90 CALM      30.02S
LANCASTER      FAIR      58  57  97 CALM      30.03R
ZANESVILLE     FAIR      62  60  93 CALM      30.03R FOG
NEW PHILLY     FAIR      61  60  97 CALM      30.03F
$$




USA.gov is the U.S. government's official web portal to all federal, state and local government web resources and services.